TimeWET,TemperatureF,Dew PointF,Humidity,Sea Level PressureIn,VisibilityMPH,Wind Direction,Wind SpeedMPH,Gust SpeedMPH,PrecipitationIn,Events,Conditions,WindDirDegrees,DateUTC
12:00 AM,54,50,82,30.09,6,NNE,2.3,,,,Mostly Cloudy,30,2013-11-20 00:00:00
12:00 AM,53.6,50.0,88,30.09,6.2,NNE,2.3,-,N/A,,Mostly Cloudy,20,2013-11-20 00:00:00
12:30 AM,55.4,50.0,82,30.09,6.2,ENE,3.5,-,N/A,,Mostly Cloudy,60,2013-11-20 00:30:00
1:00 AM,57.2,51.8,82,30.06,6.2,NE,5.8,-,N/A,,Mostly Cloudy,40,2013-11-20 01:00:00
1:30 AM,55.4,51.8,88,30.06,6.2,ENE,3.5,-,N/A,,Mostly Cloudy,60,2013-11-20 01:30:00
2:00 AM,55.4,50.0,82,30.06,6.2,East,3.5,-,N/A,,Mostly Cloudy,80,2013-11-20 02:00:00
2:30 AM,53.6,50.0,88,30.06,6.2,East,2.3,-,N/A,,Mostly Cloudy,100,2013-11-20 02:30:00
3:00 AM,52,49,88,30.08,6,East,4.6,,,,Mostly Cloudy,90,2013-11-20 03:00:00
3:00 AM,51.8,50.0,94,30.06,6.2,East,3.5,-,N/A,,Mostly Cloudy,90,2013-11-20 03:00:00
3:30 AM,51.8,50.0,94,30.06,6.2,East,2.3,-,N/A,,Scattered Clouds,90,2013-11-20 03:30:00
4:00 AM,51.8,50.0,94,30.06,6.2,East,2.3,-,N/A,,Scattered Clouds,80,2013-11-20 04:00:00
4:30 AM,51.8,50.0,94,30.06,6.2,Variable,1.2,-,N/A,,Scattered Clouds,0,2013-11-20 04:30:00
5:00 AM,51.8,50.0,94,30.06,6.2,NE,2.3,-,N/A,,Scattered Clouds,40,2013-11-20 05:00:00
5:30 AM,50.0,48.2,94,30.06,6.2,East,2.3,-,N/A,,Scattered Clouds,100,2013-11-20 05:30:00
6:00 AM,50,49,97,30.10,6,East,2.3,,,,Partly Cloudy,90,2013-11-20 06:00:00
6:00 AM,50.0,50.0,100,30.09,6.2,East,2.3,-,N/A,,Scattered Clouds,90,2013-11-20 06:00:00
6:30 AM,50.0,48.2,94,30.09,6.2,ENE,3.5,-,N/A,,Scattered Clouds,60,2013-11-20 06:30:00
7:00 AM,50.0,48.2,94,30.09,6.2,East,3.5,-,N/A,,Partly Cloudy,100,2013-11-20 07:00:00
7:30 AM,50.0,48.2,94,30.12,6.2,ESE,3.5,-,N/A,,Partly Cloudy,110,2013-11-20 07:30:00
8:00 AM,51.8,50.0,94,30.12,6.2,SE,3.5,-,N/A,,Partly Cloudy,140,2013-11-20 08:00:00
8:30 AM,53.6,50.0,88,30.12,6.2,Variable,2.3,-,N/A,,Scattered Clouds,0,2013-11-20 08:30:00
9:00 AM,56,51,80,30.12,6,East,6.9,,,,Partly Cloudy,100,2013-11-20 09:00:00
9:00 AM,55.4,51.8,88,30.12,6.2,East,6.9,-,N/A,,Scattered Clouds,100,2013-11-20 09:00:00
9:30 AM,57.2,51.8,82,30.12,4.3,East,5.8,-,N/A,,Scattered Clouds,100,2013-11-20 09:30:00
10:00 AM,59.0,51.8,77,30.12,6.2,ENE,4.6,-,N/A,,Scattered Clouds,60,2013-11-20 10:00:00
10:30 AM,59.0,51.8,77,30.12,6.2,ENE,5.8,-,N/A,,Scattered Clouds,60,2013-11-20 10:30:00
11:00 AM,59.0,51.8,77,30.12,6.2,NNE,5.8,-,N/A,,Scattered Clouds,30,2013-11-20 11:00:00
11:30 AM,60.8,51.8,72,30.12,6.2,North,5.8,-,N/A,,Scattered Clouds,10,2013-11-20 11:30:00
12:00 PM,61,50,58,30.10,6,NE,6.9,,,,Partly Cloudy,40,2013-11-20 12:00:00
12:00 PM,60.8,50.0,68,30.12,6.2,NE,6.9,-,N/A,,Scattered Clouds,40,2013-11-20 12:00:00
12:30 PM,62.6,48.2,59,30.09,6.2,NE,6.9,-,N/A,,Scattered Clouds,40,2013-11-20 12:30:00
1:00 PM,62.6,48.2,59,30.09,6.2,NNE,6.9,-,N/A,,Scattered Clouds,30,2013-11-20 13:00:00
1:30 PM,64.4,46.4,52,30.06,6.2,NE,6.9,-,N/A,,Scattered Clouds,50,2013-11-20 13:30:00
2:00 PM,66.2,44.6,46,30.06,6.2,East,4.6,-,N/A,,Scattered Clouds,80,2013-11-20 14:00:00
2:30 PM,68.0,46.4,46,30.06,6.2,Variable,3.5,-,N/A,,Scattered Clouds,0,2013-11-20 14:30:00
3:00 PM,67,46,35,30.03,6,North,5.8,,,,Partly Cloudy,0,2013-11-20 15:00:00
3:00 PM,66.2,46.4,49,30.06,6.2,NNE,5.8,-,N/A,,Scattered Clouds,20,2013-11-20 15:00:00
3:30 PM,66.2,44.6,46,30.06,6.2,NNE,6.9,-,N/A,,Scattered Clouds,20,2013-11-20 15:30:00
4:00 PM,66.2,44.6,46,30.06,6.2,NNE,6.9,-,N/A,,Scattered Clouds,30,2013-11-20 16:00:00
4:30 PM,66.2,44.6,46,30.09,6.2,NNE,6.9,-,N/A,,Mostly Cloudy,30,2013-11-20 16:30:00
5:00 PM,64.4,44.6,49,30.09,6.2,NNE,8.1,-,N/A,,Mostly Cloudy,30,2013-11-20 17:00:00
5:30 PM,64.4,42.8,45,30.09,6.2,NE,8.1,-,N/A,,Mostly Cloudy,40,2013-11-20 17:30:00
6:00 PM,62,43,38,30.07,6,NE,6.9,,,,Scattered Clouds,40,2013-11-20 18:00:00
6:00 PM,62.6,42.8,48,30.09,6.2,NE,6.9,-,N/A,,Partly Cloudy,40,2013-11-20 18:00:00
6:30 PM,60.8,42.8,52,30.09,6.2,NE,5.8,-,N/A,,Partly Cloudy,40,2013-11-20 18:30:00
7:00 PM,59.0,42.8,55,30.09,6.2,ENE,5.8,-,N/A,,Partly Cloudy,60,2013-11-20 19:00:00
7:30 PM,59.0,42.8,55,30.09,6.2,ENE,5.8,-,N/A,,Partly Cloudy,60,2013-11-20 19:30:00
8:00 PM,59.0,42.8,55,30.12,6.2,ENE,4.6,-,N/A,,Partly Cloudy,60,2013-11-20 20:00:00
8:30 PM,57.2,42.8,59,30.12,6.2,ENE,5.8,-,N/A,,Partly Cloudy,70,2013-11-20 20:30:00
9:00 PM,56,43,51,30.13,6,ENE,5.8,,,,Scattered Clouds,70,2013-11-20 21:00:00
9:00 PM,57.2,42.8,59,30.12,6.2,ENE,5.8,-,N/A,,Partly Cloudy,70,2013-11-20 21:00:00
9:30 PM,53.6,42.8,67,30.12,-9999.0,East,5.8,-,N/A,,Clear,90,2013-11-20 21:30:00
10:00 PM,55.4,44.6,67,30.12,-9999.0,ENE,5.8,-,N/A,,Clear,70,2013-11-20 22:00:00
10:30 PM,53.6,44.6,72,30.12,-9999.0,East,5.8,-,N/A,,Clear,80,2013-11-20 22:30:00
11:00 PM,53.6,44.6,72,30.12,-9999.0,East,5.8,-,N/A,,Clear,90,2013-11-20 23:00:00
11:30 PM,51.8,42.8,71,30.12,-9999.0,East,6.9,-,N/A,,Clear,100,2013-11-20 23:30:00